[[{"header":{"parameterUnit":"m.s-1","parameterCategory":1,"la1":30.2992,"la2":30.254,"lo1":-89.0895,"lo2":-89.0443,"dy":0.0025,"dx":0.0025,"nx":19,"ny":19,"refTime":"2026-04-17T09:00:00:Z","depth":0,"parameterNumber":2,"parameterNumberName":"U-component_of_WINDS"},"data":[0,0,0,1.1066,1.1071,1.1286,1.1287,1.156,1.1562,0,0,0,0,0,0,0,0,0,0,0,1.1,1.1002,1.1066,1.1071,1.1286,1.1287,1.1559,1.1562,0,0,0,0,0,0,0,0,0,0,0,1.0999,1.1001,1.1003,1.1072,1.1286,1.1287,1.1559,1.1397,0,0,0,0,0,0,0,0,0,0,1.1189,1.1125,1.1001,1.1004,1.1073,1.1285,1.1287,1.139,1.1408,1.1461,0,1.1506,0,1.1538,1.158,1.1581,0,0,0,1.1074,1.1111,1.117,1.1004,1.1075,1.1285,1.119,1.14,1.142,1.1484,1.151,1.152,1.1543,1.1582,1.1583,1.1875,1.1876,0,0,1.1062,1.1038,1.1157,1.1183,1.1148,1.1183,1.1196,1.1412,1.1439,1.1511,1.1527,1.1547,1.1583,1.1585,1.1874,1.1876,0,0,0,1.1026,1.103,1.1084,1.1172,1.1211,1.1189,1.1205,1.143,1.1449,1.153,1.155,1.1585,1.1588,1.1873,1.1875,1.191,0,0,0,1.1019,1.1009,1.1079,1.1067,1.1207,1.1323,1.1217,1.1434,1.146,1.1549,1.1585,1.1591,1.1872,1.1874,1.1906,1.1931,0,0,0,1.0987,1.1005,1.1035,1.1065,1.1156,1.132,1.1352,1.144,1.1472,1.1581,1.1592,1.1871,1.1873,1.1903,1.1925,1.1998,0,0,0,1.0946,1.1067,1.1035,1.1177,1.1154,1.134,1.1351,1.1491,1.1589,1.1586,1.1872,1.1875,1.1902,1.1922,1.1994,1.2053,1.2076,0,0,1.1085,1.1082,1.1168,1.1146,1.133,1.1309,1.15,1.1614,1.1648,1.1798,1.1805,1.1907,1.1925,1.1997,1.2216,1.2234,0,0,0,1.1203,1.1264,1.1318,1.1408,1.1497,1.1573,1.166,1.1702,1.183,1.172,1.1956,1.1967,1.201,1.2039,1.2055,1.2092,1.1888,1.1887,1.1887,1.1364,1.1398,1.1541,1.16,1.1688,1.1774,1.1848,1.1919,1.1932,1.1986,1.203,1.2159,1.2192,1.2204,1.2242,1.2066,1.2067,1.2067,1.2067,1.1567,1.1657,1.1667,1.1807,1.1843,1.1963,1.2051,1.2054,1.2171,1.213,1.217,1.2119,1.2222,1.2258,1.207,1.2069,1.2069,1.2069,1.2069,1.1674,1.1723,1.177,1.1902,1.2,1.2057,1.2167,1.2197,1.2226,1.2266,1.2314,1.2313,1.2314,1.2287,1.2287,1.2288,1.2288,1.2289,1.2289,1.1766,1.1817,1.1905,1.2006,1.2066,1.215,1.2236,1.2297,1.2372,1.2385,1.2386,1.2389,1.2227,1.2183,1.2296,1.2295,1.2294,1.2293,1.2293,1.1955,1.1916,1.2051,1.2111,1.2231,1.2324,1.2361,1.2481,1.2536,1.2589,1.2585,1.246,1.246,1.2449,1.2413,1.2578,1.2578,1.2578,1.2578,1.2043,1.2045,1.2189,1.2282,1.2377,1.2422,1.2574,1.2642,1.2707,1.2742,1.2723,1.2679,1.2666,1.2674,1.2658,1.2624,1.284,1.284,1.2841,1.2159,1.2172,1.2294,1.2355,1.245,1.2531,1.2673,1.278,1.2847,1.2852,1.277,1.2759,1.2688,1.2664,1.2666,1.2639,1.2579,0,0]},{"header":{"parameterUnit":"m.s-1","parameterCategory":1,"la1":30.2992,"la2":30.254,"lo1":-89.0895,"lo2":-89.0443,"dy":0.0025,"dx":0.0025,"nx":19,"ny":19,"refTime":"2026-04-17T09:00:00:Z","depth":0,"parameterNumber":3,"parameterNumberName":"V-component_of_WINDS"},"data":[0,0,0,0.2755,0.2756,0.282,0.2821,0.2912,0.2913,0,0,0,0,0,0,0,0,0,0,0,0.2742,0.2742,0.2755,0.2756,0.282,0.2821,0.2912,0.2913,0,0,0,0,0,0,0,0,0,0,0,0.2741,0.2742,0.2743,0.2757,0.282,0.2821,0.2912,0.286,0,0,0,0,0,0,0,0,0,0,0.2796,0.279,0.2742,0.2743,0.2757,0.282,0.2821,0.2858,0.2863,0.2887,0,0.291,0,0.2913,0.292,0.292,0,0,0,0.2753,0.2785,0.2797,0.2743,0.2758,0.282,0.279,0.2861,0.2867,0.2895,0.2911,0.2914,0.2914,0.292,0.2921,0.307,0.307,0,0,0.2749,0.2757,0.2792,0.2801,0.2792,0.2788,0.2793,0.2865,0.2883,0.2911,0.2916,0.2916,0.2921,0.2922,0.3069,0.307,0,0,0,0.2741,0.2755,0.2764,0.2798,0.2809,0.279,0.2795,0.288,0.2882,0.2917,0.2917,0.2922,0.2923,0.3068,0.3069,0.3121,0,0,0,0.2739,0.275,0.2763,0.2768,0.2807,0.2845,0.2809,0.2877,0.2885,0.2916,0.2922,0.2924,0.3067,0.3069,0.3117,0.3144,0,0,0,0.2736,0.275,0.2761,0.2769,0.2796,0.2844,0.285,0.2879,0.2885,0.292,0.2924,0.3066,0.3068,0.3114,0.3139,0.3186,0,0,0,0.2734,0.2807,0.2762,0.2842,0.2796,0.2874,0.2849,0.2908,0.2944,0.2922,0.3067,0.3069,0.3113,0.3136,0.3182,0.3227,0.3246,0,0,0.283,0.2819,0.2865,0.2826,0.2915,0.2864,0.2959,0.2986,0.2983,0.3041,0.3044,0.3118,0.3139,0.3185,0.3348,0.3363,0,0,0,0.2898,0.2932,0.2953,0.2987,0.3008,0.3027,0.3038,0.3047,0.3095,0.3014,0.3146,0.3159,0.3185,0.3207,0.322,0.3242,0.3079,0.3078,0.3078,0.3047,0.3036,0.3112,0.3109,0.3142,0.315,0.3176,0.319,0.3172,0.3203,0.3221,0.3321,0.3346,0.3355,0.3379,0.3242,0.3242,0.3243,0.3243,0.3187,0.3233,0.3203,0.3267,0.3255,0.3308,0.3317,0.3302,0.3349,0.3307,0.333,0.3286,0.3372,0.3392,0.3247,0.3246,0.3245,0.3245,0.3245,0.3285,0.3305,0.3313,0.3359,0.3396,0.3389,0.3436,0.3423,0.3412,0.3435,0.3452,0.3451,0.345,0.3443,0.3444,0.3444,0.3444,0.3445,0.3445,0.3384,0.3392,0.3432,0.3457,0.3476,0.3499,0.3505,0.3523,0.354,0.3528,0.3528,0.3506,0.3382,0.3352,0.345,0.3449,0.3448,0.3448,0.3448,0.3534,0.3497,0.356,0.3578,0.3605,0.3641,0.3623,0.3661,0.3674,0.3697,0.3668,0.3578,0.3566,0.3556,0.3531,0.367,0.367,0.367,0.367,0.3618,0.3609,0.3669,0.3699,0.3727,0.3715,0.3785,0.379,0.3789,0.3796,0.3773,0.3738,0.3728,0.3722,0.3708,0.3685,0.386,0.386,0.386,0.3709,0.3702,0.3765,0.3762,0.3781,0.3797,0.3863,0.3898,0.3889,0.3867,0.3801,0.3793,0.3736,0.3718,0.3699,0.3678,0.3635,0,0]}]]